星链-4332 (STARLINK-4332 )

导读

STARLINK-4332是美国SpaceX公司星链星座的一颗低轨互联网卫星,于2022年7月22日由猎鹰9号火箭发射,隶属星链Group 4-16批次。该卫星重约297kg,运行在约550公里高度的近地轨道,为全球提供高速低延迟互联网覆盖,尤其服务地面网络难以覆盖的偏远区域,助力缩小数字鸿沟,同时也被应用于应急与军事通信领域。

Basic Information
目录编号:
53190
目录名称:
STARLINK-4332
国际标识:
2022-084B
轨道中心:
EARTH
卫星名称:
星链-4332
卫星全名:
星链-4332 (STARLINK-4332 )
卫星状态:
在轨 (已飞行1505 天)
发射日期:
2022-07-22 UTC
国别 :
美国 (US)
星等 :
--
Orbit Information
数据来源 国际轨道数据
星历时间: 2026-09-04T12:00:02+0800
7小时前
查看轨道信息
半长轴: 6868.81km
偏心率: 0.0001952
轨道倾角: 97.285°
近地点辐角 84.827°
升交点赤经 303.225°
平近点角 318.377°
近地点: 489.332km
远地点: 492.014km
周期: 94.424分钟
每日圈数: 15.250375
Detailed Information
固有亮度:
5
最大亮度:
2.5
卫星平台:
Starlink v1.5
覆盖范围:
全球
运营商:
太空探索技术公司
运营商所在国:
美国
制造商(研发单位):
太空探索技术公司
制造商所在国:
美国
使用方式:
暂无
Satellite Introduction
星链(Starlink)计划是由太空探索技术公司(SpaceX)提出的一个巨型低轨卫星互联网星座项目,计划在2019年至2024年间在太空搭建由约1.2万颗卫星组成的“星链”网络,其中1584颗将部署在地球上空550千米处的近地轨道,并从2020年开始工作。该卫星仍在工作。
2D Orbit Map
3D Orbit Map
Orbit Altitude Analysis Chart
Orbit Inclination Analysis Chart
Orbit Comprehensive Analysis Chart
View Comprehensive Chart
Conjunction Data List
Event ID Objects TCA Miss Dist (km) Collision Risk Probability Collision Risk Index (CRI) Action
CDM_260906-112905-319005-559221
2026-09-06T
11:29:05+0000
1.568 km
极远距离
5.276433E-6 低风险 0.49
CDM_260906-031205-319006-762121
2026-09-06T
03:12:27+0000
1.899 km
极远距离
2.884084E-6 低风险 0.44
CDM_260903-083104-940105-319021
DRUMS (49401)
2026-09-03T
08:31:21+0000
1.454 km
极远距离
2.476349E-6 低风险 0.43
CDM_260906-143805-319006-248221
2026-09-06T
14:38:47+0000
2.174 km
极远距离
2.198585E-6 低风险 0.42